Regional Weather Roundup
Issued by NWS Goodland, KS

Home | Current Version | Previous Version | Text Only | Print | Product List | Glossary Off
Versions: 1 2 3 4 5 6 7 8 9 10 11 12 13 14 15 16 17 18 19 20 21 22 23 24 25 26 27 28 29 30 31 32 33 34 35 36 37 38 39 40 41 42 43 44 45 46 47 48 49 50

836
ASUS43 KGLD 032208
RWRGLD

GOODLAND FORECAST AREA HOURLY WEATHER ROUNDUP
NATIONAL WEATHER SERVICE GOODLAND KS
400 PM MDT TUE MAY 03 2016

...OFFICIAL OBSERVATIONS...

CITY           SKY/WX    TMP DP  RH WIND       PRES   REMARKS
GOODLAND KS    SUNNY     67  35  30 N16G24    30.09F
HILL CITY KS   MOSUNNY   69  42  37 NW12      30.05F
IMPERIAL NEB   SUNNY     68  36  30 N13G21    30.08F
MCCOOK NEB     SUNNY     68  41  37 N14       30.05F
AKRON CO       SUNNY     67  34  29 N21G29    30.14F
BURLINGTON CO  SUNNY     66  29  24 N20       30.12F
LIMON CO       MOSUNNY   63  32  31 N23G29    30.18F
$$

...UNOFFICIAL OBSERVATIONS...

CITY           SKY/WX    TMP DP  RH WIND       PRES   REMARKS
COLBY KS       SUNNY     64  48  55 N13       30.10F
NORTON KS      MOSUNNY   68  37  32 N6        30.04F
SHARON SPRINGS   N/A     65  42  43 N9G20       N/A
KIT CARSON CO    N/A     67  31  26 MISG        N/A
YUMA CO          N/A     68  33  27 NE12G18     N/A
$$




USA.gov is the U.S. government's official web portal to all federal, state and local government web resources and services.